Wind_Speed
10 9 9 9 10 11 11 10 10 9 10 10 11 11 11 11 10 10 9 9 9 8 9 9 9 9 9 10 11 11 12 13 14 15 17 17 19 20 21 22 24 24 25 26
11 12 11 11 10 11 11 11 11 11 10 11 12 12 11 11 11 10 10 10 9 10 10 10 10 10 10 11 13 13 14 15 16 17 18 20 21 23 23 24 25 26 27 28
12 13 13 11 10 11 11 11 12 12 11 11 12 12 12 12 11 10 10 10 10 11 11 11 11 11 12 13 14 15 15 17 18 19 20 22 23 24 26 26 27 28 29 31
14 15 15 11 12 13 13 13 13 12 12 12 13 13 12 12 12 11 11 11 11 12 12 13 13 14 14 15 16 17 18 19 20 21 23 24 26 27 28 28 29 30 32 33
15 15 13 12 14 15 15 13 14 14 13 14 13 12 12 12 12 12 12 13 13 13 14 15 15 16 17 17 18 19 20 21 22 24 25 27 28 29 30 31 32 33 34 35
17 16 14 13 15 16 16 14 15 15 15 14 14 13 13 14 14 14 14 15 15 16 16 17 18 19 20 20 21 22 22 23 25 27 28 29 30 31 32 33 34 35 36 37
18 17 15 14 16 16 16 14 15 15 15 15 15 15 15 15 16 16 16 16 17 18 19 20 21 21 22 23 23 24 25 26 28 29 30 32 33 33 35 35 36 37 38 40
19 19 16 17 17 17 16 17 17 17 17 17 17 17 17 17 18 18 18 19 19 20 21 22 23 24 25 25 26 26 28 29 31 32 33 34 35 36 37 38 38 40 41 42
20 20 20 19 19 19 19 19 19 19 19 19 20 20 20 20 20 20 21 21 22 22 23 24 25 26 27 28 29 29 31 32 34 34 35 36 37 38 39 40 41 42 43 43
22 22 22 22 22 22 23 22 22 22 22 22 22 22 22 22 22 23 23 24 24 25 25 26 27 28 29 30 31 32 34 35 35 36 37 38 39 40 41 42 43 44 44 45
24 23 24 24 25 25 25 25 25 25 25 25 25 25 25 25 26 26 27 27 27 27 28 29 29 31 32 33 34 35 35 36 37 38 39 40 40 41 43 44 44 45 46 46
26 25 26 26 26 27 27 27 27 28 28 28 28 28 28 28 28 29 29 29 30 30 31 31 32 32 34 35 36 37 37 38 39 39 40 41 42 43 45 45 46 47 47 48
28 27 28 27 28 29 29 29 30 30 30 30 30 30 30 30 30 30 31 31 32 32 33 33 34 35 35 36 37 38 39 40 41 41 42 43 44 45 46 47 48 48 49 50
31 30 29 29 29 29 30 30 31 31 31 32 32 32 32 32 32 32 33 33 33 34 35 35 36 36 37 38 38 39 41 42 42 43 44 45 46 47 48 49 49 50 51 52
34 34 33 32 31 31 32 32 32 32 32 33 33 33 34 34 34 34 35 35 35 36 36 37 37 38 39 40 40 41 42 43 44 45 46 47 49 49 50 51 51 52 53 54
36 36 36 35 35 34 34 34 34 33 34 34 34 34 35 35 36 36 37 37 37 37 38 38 39 40 41 41 42 43 44 45 46 47 48 49 50 50 52 53 54 55 55 56
37 37 37 37 37 37 37 37 37 36 36 36 36 37 37 37 38 38 38 39 39 39 40 40 41 42 43 44 44 45 46 47 48 49 50 51 51 52 54 55 56 56 57 58
39 39 39 39 40 39 39 39 40 40 40 40 40 40 40 40 40 41 41 41 41 41 42 43 44 44 45 45 46 47 47 48 49 50 51 52 54 54 56 57 57 58 59 60
40 40 41 41 42 42 42 42 42 42 42 42 42 42 42 43 43 43 43 43 43 43 44 45 46 46 47 47 48 49 50 51 52 53 53 54 55 57 59 60 60 60 61 62
40 40 41 42 42 42 42 42 43 43 43 43 44 44 44 44 45 45 45 45 45 46 46 47 48 49 49 50 50 51 52 53 54 55 56 57 58 59 60 61 62 62 62 62
41 41 42 42 43 43 43 44 44 45 45 45 46 46 46 46 46 47 47 47 48 48 49 50 51 51 52 52 53 54 55 56 57 58 59 59 60 61 62 62 62 62 62 62
43 44 45 45 45 45 46 46 47 47 48 48 48 48 49 49 50 50 50 50 50 51 52 52 53 54 54 55 56 57 57 58 59 60 61 61 62 63 63 62 62 62 62 61
46 46 47 47 47 47 47 47 47 48 49 50 50 51 52 52 53 53 53 53 54 54 54 55 55 56 56 57 58 58 59 60 61 62 62 63 63 63 63 62 62 61 60 59
47 48 48 48 49 50 50 50 50 50 51 51 52 53 53 54 54 55 56 56 56 56 56 57 57 57 58 59 59 60 60 61 62 63 63 63 63 63 62 61 60 59 57 55
49 50 50 50 50 51 51 52 53 53 53 53 54 54 55 55 55 56 57 57 57 58 58 58 59 59 60 60 60 61 62 62 63 63 62 62 62 61 59 58 56 55 53 51
51 51 52 53 53 53 53 53 54 54 55 55 55 55 56 56 57 57 57 58 58 59 59 59 60 60 61 62 63 63 63 62 62 61 61 60 59 57 56 54 53 52 50 48
52 52 53 53 54 55 56 56 56 56 57 57 58 57 57 57 58 58 58 58 58 59 60 60 61 62 63 63 63 62 62 61 60 60 59 57 56 54 53 52 51 49 47 46
Wind_Direction
229 231 236 236 241 243 242 243 247 243 238 236 242 246 252 255 258 260 262 260 258 259 258 258 264 268 269 273 281 288 293 297 299 302 304 307 311 311 310 311 312 313 314 314
235 239 243 244 248 249 245 246 250 248 242 243 247 251 254 257 259 261 261 260 261 262 264 263 267 271 274 278 284 289 292 296 299 302 304 306 307 309 310 310 311 311 313 313
239 243 248 250 250 250 250 249 250 250 250 250 253 254 254 256 260 260 260 261 264 265 266 266 269 275 279 282 288 291 294 298 300 301 303 305 306 307 309 309 309 311 312 313
249 250 251 251 249 253 253 251 251 252 251 252 254 254 254 256 259 260 261 263 266 267 268 270 273 277 280 283 287 290 294 297 299 300 302 304 305 306 307 307 307 309 310 311
254 255 254 252 254 255 255 253 255 254 253 253 254 255 257 258 260 262 263 265 268 270 271 273 274 277 280 282 285 289 292 295 298 300 302 303 304 305 305 306 307 308 309 310
256 258 256 253 255 255 256 254 253 255 255 254 254 255 257 260 263 265 267 269 271 273 275 277 277 278 280 283 285 287 290 293 296 299 300 301 302 303 304 305 306 307 308 309
257 258 258 257 255 255 257 254 251 252 254 255 255 257 260 263 264 266 270 272 274 276 278 279 279 280 282 283 285 287 289 293 295 298 299 300 301 301 303 305 306 307 308 309
257 257 256 255 256 255 254 252 254 254 255 255 257 260 262 264 266 269 271 274 277 279 279 280 281 281 282 284 286 288 290 292 294 296 298 299 300 301 303 304 305 306 307 308
257 259 257 256 255 254 254 255 256 257 258 259 261 261 262 264 267 270 273 276 278 280 281 281 282 282 282 284 287 288 289 291 293 295 297 298 299 301 303 304 305 306 306 307
257 257 257 256 256 255 257 257 257 258 260 263 263 264 265 266 269 272 274 276 279 281 284 284 284 284 284 286 287 288 290 291 292 294 295 297 299 301 302 304 304 305 306 306
258 256 255 255 256 257 258 259 260 260 262 264 265 265 266 268 270 273 276 278 280 282 283 285 287 286 285 286 288 289 291 291 292 293 295 297 298 300 302 304 305 305 305 306
257 257 257 257 257 258 259 260 261 262 264 266 267 267 268 270 272 274 276 278 280 282 283 284 286 287 287 286 287 289 290 291 293 294 295 296 298 300 302 303 304 304 305 305
258 257 259 259 259 259 260 261 263 264 266 267 268 269 270 272 273 274 276 278 279 281 282 284 286 288 288 288 289 289 289 291 293 294 296 297 298 299 301 302 303 303 304 304
258 259 260 260 260 261 262 263 264 265 267 267 268 269 270 272 273 275 276 278 279 281 283 285 286 288 289 290 290 290 290 291 293 294 296 297 298 299 301 302 302 302 303 303
260 260 261 261 262 263 263 264 265 266 267 268 269 270 272 273 274 275 277 278 280 281 283 285 286 287 288 289 290 291 292 293 293 294 295 297 298 299 300 301 301 302 302 303
261 262 262 262 262 263 263 264 265 266 267 268 270 271 273 274 276 277 278 279 280 281 282 284 285 287 288 289 290 291 293 294 294 295 296 297 299 300 300 301 301 302 302 303
261 262 262 262 262 263 263 264 265 266 268 269 270 272 273 275 276 277 279 280 281 282 283 284 285 287 288 290 290 292 293 295 296 296 296 298 299 300 301 301 301 302 302 303
261 262 262 263 263 263 264 265 265 266 267 269 270 272 273 274 275 277 278 279 281 282 283 284 286 287 288 290 291 292 293 294 295 297 298 298 299 300 301 301 302 302 303 303
262 262 263 264 265 265 266 267 267 268 268 269 270 271 272 274 275 276 278 279 280 282 283 284 286 287 288 289 290 292 293 294 295 296 298 299 300 300 300 301 302 302 303 304
263 263 264 265 266 266 267 267 268 268 269 270 271 272 273 274 275 277 278 279 280 281 282 284 285 286 287 288 289 291 292 293 295 296 297 298 299 300 301 302 302 302 303 303
263 264 265 266 266 267 267 268 268 269 270 271 272 273 274 275 276 277 278 279 280 281 282 283 284 285 286 287 289 290 292 293 294 295 296 298 299 300 301 301 302 302 303 303
264 265 266 267 268 268 268 269 270 270 270 271 272 273 274 275 276 277 278 279 280 281 282 283 284 285 286 287 289 290 291 292 294 295 296 298 299 300 300 301 302 302 303 303
265 266 267 268 269 269 269 270 270 271 271 272 272 273 274 275 276 277 278 279 279 280 282 283 283 284 286 287 289 289 291 292 293 295 296 298 299 299 300 300 301 302 303 303
266 267 267 268 269 270 270 270 271 271 272 273 273 274 275 275 276 277 278 278 279 280 281 283 284 284 286 287 288 289 291 292 294 295 297 298 299 299 300 300 301 302 302 302
267 267 268 269 269 270 271 271 272 273 273 274 275 275 276 276 277 278 278 279 280 280 281 282 283 284 286 287 288 290 292 293 294 296 297 297 298 299 299 300 301 301 301 301
267 268 269 269 269 269 270 271 272 272 273 274 275 276 277 278 278 278 279 279 280 281 281 282 283 284 286 288 290 291 292 293 294 295 296 298 298 299 299 299 300 300 301 301
269 269 270 270 270 270 271 272 273 274 275 275 276 277 277 278 279 279 279 279 280 281 281 283 284 285 287 288 290 291 292 293 294 295 296 296 297 297 297 298 299 300 300 300
Height
5834 5835 5836 5837 5838 5839 5840 5841 5842 5844 5844 5846 5846 5846 5846 5846 5846 5845 5845 5844 5844 5844 5844 5844 5844 5845 5845 5845 5845 5844 5844 5844 5843 5842 5841 5840 5838 5837 5835 5833 5830 5828 5826 5823
5833 5833 5834 5835 5836 5837 5838 5839 5840 5840 5842 5842 5842 5843 5843 5843 5843 5843 5842 5842 5842 5842 5842 5842 5842 5842 5842 5842 5841 5841 5841 5840 5839 5838 5837 5836 5834 5832 5830 5827 5825 5822 5819 5816
5830 5831 5831 5833 5834 5834 5835 5836 5837 5838 5840 5839 5839 5840 5840 5840 5840 5840 5840 5840 5839 5839 5839 5839 5839 5839 5839 5839 5838 5837 5837 5836 5835 5834 5832 5830 5828 5826 5824 5821 5819 5816 5813 5810
5827 5829 5829 5833 5831 5832 5832 5833 5834 5834 5835 5836 5836 5837 5837 5837 5837 5837 5837 5837 5837 5836 5836 5836 5836 5836 5835 5835 5834 5833 5832 5831 5830 5829 5827 5825 5823 5820 5818 5815 5812 5809 5806 5802
5824 5824 5826 5828 5828 5828 5829 5830 5831 5831 5831 5832 5832 5833 5834 5834 5834 5834 5834 5833 5833 5833 5832 5832 5832 5831 5831 5830 5829 5829 5827 5826 5825 5823 5821 5819 5816 5814 5811 5808 5805 5801 5798 5794
5820 5820 5822 5826 5825 5824 5826 5827 5827 5827 5827 5828 5828 5830 5830 5829 5830 5830 5830 5829 5829 5829 5828 5828 5827 5827 5826 5825 5824 5823 5822 5820 5818 5816 5814 5812 5809 5806 5803 5800 5797 5793 5789 5785
5815 5815 5818 5820 5820 5820 5822 5824 5823 5823 5823 5824 5825 5826 5826 5825 5825 5825 5825 5825 5824 5824 5823 5823 5822 5821 5820 5819 5818 5817 5815 5813 5811 5809 5807 5804 5801 5798 5795 5791 5788 5784 5780 5776
5810 5811 5815 5814 5815 5816 5817 5817 5817 5818 5819 5819 5820 5820 5821 5821 5821 5820 5820 5820 5819 5818 5818 5816 5816 5815 5814 5813 5812 5810 5808 5806 5804 5801 5799 5796 5792 5789 5786 5782 5778 5774 5770 5766
5806 5809 5808 5809 5809 5810 5811 5812 5812 5813 5814 5814 5815 5815 5815 5815 5815 5815 5815 5814 5813 5812 5811 5810 5809 5808 5807 5805 5804 5802 5800 5798 5795 5793 5790 5787 5783 5780 5776 5772 5768 5764 5759 5755
5800 5802 5802 5802 5803 5804 5805 5806 5806 5807 5808 5808 5809 5809 5809 5809 5809 5809 5808 5808 5807 5806 5805 5803 5801 5800 5799 5797 5795 5793 5791 5789 5786 5783 5780 5777 5773 5770 5766 5761 5757 5753 5748 5743
5793 5795 5795 5796 5796 5797 5798 5799 5800 5801 5801 5802 5802 5802 5803 5803 5802 5802 5801 5801 5800 5798 5797 5795 5793 5792 5790 5788 5786 5784 5782 5779 5776 5773 5770 5767 5763 5759 5755 5750 5745 5740 5736 5731
5786 5787 5788 5789 5790 5791 5791 5792 5793 5793 5794 5794 5794 5795 5795 5795 5795 5794 5793 5792 5791 5790 5789 5787 5785 5783 5781 5779 5777 5774 5772 5769 5766 5763 5760 5756 5752 5749 5743 5739 5734 5728 5723 5718
5778 5779 5780 5781 5782 5783 5784 5784 5785 5785 5786 5786 5786 5786 5786 5786 5786 5785 5784 5783 5782 5781 5779 5778 5776 5773 5771 5769 5766 5764 5761 5758 5755 5752 5748 5745 5741 5737 5733 5728 5722 5716 5711 5705
5769 5770 5771 5773 5773 5774 5775 5776 5776 5776 5777 5777 5777 5777 5777 5776 5776 5775 5775 5774 5773 5771 5770 5768 5766 5763 5761 5758 5756 5753 5750 5747 5744 5740 5737 5733 5728 5724 5720 5715 5711 5705 5699 5692
5760 5761 5762 5764 5765 5765 5766 5766 5767 5767 5767 5767 5767 5767 5767 5766 5766 5765 5765 5764 5762 5761 5759 5757 5755 5753 5750 5747 5745 5742 5739 5735 5732 5728 5724 5720 5716 5711 5706 5701 5696 5691 5686 5680
5750 5751 5752 5753 5754 5755 5756 5756 5757 5757 5757 5757 5757 5757 5757 5756 5756 5755 5754 5753 5752 5750 5748 5746 5744 5741 5739 5736 5733 5730 5727 5723 5719 5715 5711 5707 5702 5697 5692 5687 5682 5677 5671 5665
5739 5740 5741 5742 5743 5744 5745 5745 5746 5746 5747 5747 5747 5746 5746 5745 5745 5744 5743 5741 5740 5738 5737 5735 5732 5730 5727 5724 5721 5718 5714 5711 5706 5702 5698 5693 5689 5683 5678 5673 5667 5662 5656 5649
5728 5729 5730 5731 5731 5732 5733 5734 5734 5734 5735 5735 5735 5734 5734 5733 5733 5732 5730 5729 5728 5726 5724 5722 5719 5717 5714 5711 5708 5705 5701 5698 5693 5689 5684 5679 5674 5669 5664 5658 5652 5646 5640 5634
5716 5717 5718 5718 5719 5720 5721 5722 5722 5722 5722 5722 5722 5722 5721 5721 5720 5719 5718 5716 5715 5713 5711 5709 5706 5704 5701 5698 5695 5692 5688 5684 5680 5675 5670 5665 5660 5654 5648 5642 5636 5630 5624 5617
5703 5704 5705 5706 5707 5707 5708 5709 5709 5709 5709 5709 5709 5709 5708 5708 5707 5706 5704 5703 5701 5700 5697 5695 5692 5690 5687 5684 5681 5677 5673 5669 5665 5660 5655 5650 5644 5638 5632 5626 5619 5613 5606 5600
5691 5692 5693 5693 5694 5694 5695 5695 5695 5696 5696 5695 5695 5695 5694 5693 5692 5691 5690 5689 5687 5685 5682 5680 5677 5675 5672 5669 5665 5662 5658 5653 5649 5644 5639 5634 5628 5622 5616 5609 5602 5596 5589 5582
5678 5679 5679 5680 5681 5681 5681 5681 5681 5681 5681 5681 5680 5680 5679 5679 5677 5676 5675 5674 5672 5669 5667 5664 5662 5659 5656 5653 5649 5646 5642 5637 5632 5627 5622 5617 5611 5605 5599 5592 5585 5579 5572 5565
5664 5664 5665 5666 5666 5667 5667 5666 5666 5666 5666 5666 5665 5664 5663 5663 5662 5661 5660 5658 5655 5653 5651 5648 5646 5643 5640 5636 5633 5629 5625 5620 5615 5610 5605 5599 5593 5587 5581 5574 5568 5561 5555 5548
5649 5649 5650 5650 5651 5651 5652 5651 5651 5650 5650 5650 5649 5648 5647 5646 5645 5643 5642 5640 5638 5636 5634 5631 5628 5626 5622 5619 5616 5612 5607 5602 5598 5593 5587 5581 5575 5569 5563 5557 5551 5544 5538 5532
5633 5634 5634 5635 5635 5635 5635 5635 5634 5634 5634 5633 5632 5631 5629 5628 5627 5626 5624 5622 5620 5618 5616 5614 5611 5608 5605 5601 5597 5593 5589 5584 5579 5574 5569 5563 5557 5551 5545 5539 5534 5528 5522 5517
5617 5618 5618 5618 5619 5618 5618 5618 5617 5617 5616 5615 5614 5613 5612 5610 5609 5607 5606 5604 5602 5600 5598 5595 5592 5589 5586 5582 5578 5574 5570 5565 5560 5555 5550 5545 5539 5534 5528 5523 5518 5513 5508 5503
5600 5600 5600 5601 5601 5601 5600 5600 5599 5599 5597 5596 5596 5595 5593 5592 5591 5589 5587 5585 5583 5581 5579 5576 5573 5570 5567 5563 5559 5555 5551 5546 5542 5537 5532 5527 5522 5517 5512 5508 5503 5498 5493 5489